UPS2402 KATL-KSAT

Flight info

Callsign UPS2402
Flight time N/A
Altitude 36000
Route STNGA WINAP Q40 AEX CAAGE
Aircraft B752/M-SDE2E3FGHIJ3J4J7RWXY/LB1

Departure

Time 2026-05-04 17:42
Airport Hartsfield Jackson Atlanta International Airport (KATL)

Arrival

Time N/A
Airport San Antonio International Airport (KSAT)
Time Latitude Longitude Altitude Speed Heading
2026-05-04 17:08 33.65232 -84.42279 989 ft 0 kts 45°
2026-05-04 17:31 33.65207 -84.42295 989 ft 2 kts 29°
2026-05-04 17:31 33.65167 -84.42320 989 ft 2 kts 27°
2026-05-04 17:32 33.65157 -84.42339 989 ft 0 kts 93°
2026-05-04 17:33 33.65157 -84.42344 989 ft 0 kts 90°
2026-05-04 17:35 33.65157 -84.42293 988 ft 6 kts 90°
2026-05-04 17:35 33.65108 -84.42215 987 ft 6 kts 163°
2026-05-04 17:35 33.65071 -84.42188 986 ft 6 kts 121°
2026-05-04 17:36 33.65065 -84.42135 986 ft 6 kts 91°
2026-05-04 17:36 33.65064 -84.42079 985 ft 7 kts 90°
2026-05-04 17:36 33.65064 -84.42017 984 ft 7 kts 90°
2026-05-04 17:36 33.65064 -84.41958 983 ft 7 kts 89°
2026-05-04 17:37 33.65065 -84.41898 983 ft 6 kts 91°
2026-05-04 17:37 33.65064 -84.41844 983 ft 6 kts 91°
2026-05-04 17:37 33.65064 -84.41773 983 ft 10 kts 91°
2026-05-04 17:37 33.65064 -84.41676 983 ft 13 kts 89°
2026-05-04 17:38 33.65075 -84.41560 985 ft 14 kts 73°
2026-05-04 17:38 33.65115 -84.41445 986 ft 16 kts 72°
2026-05-04 17:38 33.65121 -84.41306 987 ft 17 kts 92°
2026-05-04 17:38 33.65119 -84.41159 989 ft 18 kts 89°
2026-05-04 17:39 33.65024 -84.40961 989 ft 17 kts 178°
2026-05-04 17:39 33.64920 -84.40962 986 ft 14 kts 181°
2026-05-04 17:39 33.64845 -84.40887 985 ft 17 kts 95°
2026-05-04 17:40 33.64845 -84.40733 986 ft 19 kts 91°
2026-05-04 17:40 33.64803 -84.40574 981 ft 23 kts 161°
2026-05-04 17:40 33.64759 -84.40569 981 ft 6 kts 178°
2026-05-04 17:40 33.64700 -84.40583 979 ft 10 kts 220°
2026-05-04 17:41 33.64679 -84.40673 980 ft 12 kts 269°
2026-05-04 17:41 33.64681 -84.40909 983 ft 57 kts 270°
2026-05-04 17:41 33.64678 -84.41678 980 ft 125 kts 271°
2026-05-04 17:41 33.64674 -84.42950 1148 ft 169 kts 270°
2026-05-04 17:42 33.64648 -84.44375 1812 ft 177 kts 270°
2026-05-04 17:42 33.64601 -84.45937 2134 ft 203 kts 269°
2026-05-04 17:42 33.64642 -84.47736 2161 ft 230 kts 285°
2026-05-04 17:42 33.65144 -84.49625 2560 ft 241 kts 289°
2026-05-04 17:43 33.65618 -84.51578 2972 ft 253 kts 286°
2026-05-04 17:43 33.66063 -84.53665 3479 ft 261 kts 285°
2026-05-04 17:43 33.66483 -84.55747 4242 ft 258 kts 285°
2026-05-04 17:43 33.66896 -84.57846 4875 ft 261 kts 285°
2026-05-04 17:44 33.67274 -84.59958 5581 ft 260 kts 284°
2026-05-04 17:44 33.67637 -84.62078 6255 ft 261 kts 284°
2026-05-04 17:44 33.68001 -84.64203 6939 ft 261 kts 284°
2026-05-04 17:44 33.68363 -84.66331 7618 ft 262 kts 283°
2026-05-04 17:45 33.68726 -84.68466 8293 ft 262 kts 283°
2026-05-04 17:45 33.69087 -84.70598 8964 ft 262 kts 282°
2026-05-04 17:45 33.69448 -84.72729 9625 ft 263 kts 282°
2026-05-04 17:45 33.69781 -84.74874 10283 ft 263 kts 275°
2026-05-04 17:46 33.69581 -84.77100 10534 ft 282 kts 255°
2026-05-04 17:46 33.68870 -84.79407 10563 ft 307 kts 251°
2026-05-04 17:46 33.68082 -84.81871 10794 ft 322 kts 251°
2026-05-04 17:46 33.67291 -84.84338 11668 ft 316 kts 251°
2026-05-04 17:47 33.66504 -84.86788 12267 ft 318 kts 251°
2026-05-04 17:47 33.65707 -84.89267 12831 ft 320 kts 251°
2026-05-04 17:47 33.65010 -84.91430 13339 ft 322 kts 251°
2026-05-04 17:47 33.64203 -84.93935 13885 ft 324 kts 251°
2026-05-04 17:48 33.63501 -84.96112 14356 ft 326 kts 251°
2026-05-04 17:48 33.62682 -84.98649 14875 ft 328 kts 251°
2026-05-04 17:48 33.61855 -85.01208 15364 ft 331 kts 251°
2026-05-04 17:48 33.61021 -85.03787 15854 ft 334 kts 251°
2026-05-04 17:49 33.60180 -85.06386 16311 ft 337 kts 251°
2026-05-04 17:49 33.59331 -85.09007 16770 ft 339 kts 251°
2026-05-04 17:49 33.58475 -85.11649 17202 ft 342 kts 252°
2026-05-04 17:49 33.57612 -85.14311 17631 ft 345 kts 252°
2026-05-04 17:50 33.56738 -85.17001 18031 ft 349 kts 252°
2026-05-04 17:50 33.55856 -85.19714 18467 ft 351 kts 252°
2026-05-04 17:50 33.55006 -85.22458 18892 ft 352 kts 256°
2026-05-04 17:50 33.54434 -85.25298 19333 ft 352 kts 261°
2026-05-04 17:51 33.53913 -85.28168 19760 ft 355 kts 260°
2026-05-04 17:51 33.53380 -85.31055 20204 ft 356 kts 260°
2026-05-04 17:51 33.52845 -85.33953 20645 ft 358 kts 260°
2026-05-04 17:51 33.52306 -85.36866 21058 ft 360 kts 261°
2026-05-04 17:52 33.51762 -85.39801 21478 ft 362 kts 261°
2026-05-04 17:52 33.51215 -85.42748 21892 ft 364 kts 261°
2026-05-04 17:52 33.50664 -85.45714 22280 ft 367 kts 261°
2026-05-04 17:52 33.50109 -85.48698 22693 ft 368 kts 261°
2026-05-04 17:53 33.49551 -85.51691 23085 ft 370 kts 261°
2026-05-04 17:53 33.48989 -85.54700 23484 ft 372 kts 261°
2026-05-04 17:53 33.48423 -85.57729 23844 ft 374 kts 261°
2026-05-04 17:53 33.47853 -85.60774 24202 ft 377 kts 261°
2026-05-04 17:54 33.47279 -85.63833 24595 ft 378 kts 261°
2026-05-04 17:54 33.46703 -85.66902 24982 ft 379 kts 260°
2026-05-04 17:54 33.46122 -85.69995 25289 ft 383 kts 260°
2026-05-04 17:54 33.45537 -85.73102 25686 ft 384 kts 260°
2026-05-04 17:55 33.44950 -85.76217 26029 ft 386 kts 260°
2026-05-04 17:55 33.44359 -85.79343 26394 ft 387 kts 260°
2026-05-04 17:55 33.43764 -85.82492 26704 ft 390 kts 261°
2026-05-04 17:55 33.43165 -85.85652 27089 ft 391 kts 261°
2026-05-04 17:56 33.42564 -85.88821 27420 ft 393 kts 260°
2026-05-04 17:56 33.41958 -85.92011 27751 ft 394 kts 261°
2026-05-04 17:56 33.41349 -85.95214 28052 ft 397 kts 261°
2026-05-04 17:56 33.40734 -85.98439 28359 ft 399 kts 261°
2026-05-04 17:57 33.40118 -86.01671 28685 ft 400 kts 261°
2026-05-04 17:57 33.39498 -86.04914 29016 ft 402 kts 261°
2026-05-04 17:57 33.38873 -86.08181 29251 ft 405 kts 261°
2026-05-04 17:57 33.38245 -86.11453 29621 ft 405 kts 261°
2026-05-04 17:58 33.37615 -86.14740 29891 ft 408 kts 261°
2026-05-04 17:58 33.36979 -86.18049 30153 ft 410 kts 261°
2026-05-04 17:58 33.36340 -86.21362 30465 ft 411 kts 261°
2026-05-04 17:58 33.35698 -86.24693 30744 ft 413 kts 261°
2026-05-04 17:59 33.35052 -86.28038 31032 ft 414 kts 261°
2026-05-04 17:59 33.34403 -86.31391 31260 ft 417 kts 261°
2026-05-04 17:59 33.33095 -86.38138 31897 ft 418 kts 261°
2026-05-04 18:00 33.32440 -86.41506 32318 ft 416 kts 261°
2026-05-04 18:00 33.31788 -86.44852 32787 ft 413 kts 261°
2026-05-04 18:00 33.31138 -86.48184 33154 ft 413 kts 261°
2026-05-04 18:00 33.30486 -86.51525 33469 ft 414 kts 261°
2026-05-04 18:01 33.29836 -86.54853 33972 ft 410 kts 261°
2026-05-04 18:01 33.29189 -86.58155 34391 ft 409 kts 261°
2026-05-04 18:01 33.28543 -86.61449 34774 ft 408 kts 261°
2026-05-04 18:02 33.27250 -86.68028 35469 ft 408 kts 261°
2026-05-04 18:02 33.26602 -86.71317 35871 ft 407 kts 261°
2026-05-04 18:02 33.25956 -86.74596 36120 ft 408 kts 261°
2026-05-04 18:02 33.25303 -86.77899 36115 ft 408 kts 261°
2026-05-04 18:03 33.24010 -86.84425 36122 ft 404 kts 261°
2026-05-04 18:03 33.22718 -86.90932 36122 ft 404 kts 261°
2026-05-04 18:04 33.21418 -86.97458 36118 ft 403 kts 261°
2026-05-04 18:05 33.19472 -87.07195 36117 ft 402 kts 261°
2026-05-04 18:05 33.18171 -87.13678 36115 ft 402 kts 261°
2026-05-04 18:06 33.16212 -87.23411 36114 ft 403 kts 261°
2026-05-04 18:06 33.14901 -87.29901 36119 ft 404 kts 261°
2026-05-04 18:07 33.13585 -87.36395 36117 ft 403 kts 261°
2026-05-04 18:07 33.12272 -87.42855 36116 ft 403 kts 261°
2026-05-04 18:08 33.10806 -87.49304 36087 ft 404 kts 258°
2026-05-04 18:08 33.09228 -87.55723 36088 ft 404 kts 258°
2026-05-04 18:09 33.06076 -87.68533 36084 ft 404 kts 257°
2026-05-04 18:10 33.04493 -87.74948 36079 ft 404 kts 257°
2026-05-04 18:10 33.02907 -87.81355 36062 ft 405 kts 257°
2026-05-04 18:11 33.01311 -87.87790 36054 ft 405 kts 257°
2026-05-04 18:11 32.99714 -87.94219 36060 ft 406 kts 257°
2026-05-04 18:12 32.98112 -88.00644 36055 ft 406 kts 257°
2026-05-04 18:12 32.96505 -88.07080 36055 ft 407 kts 257°
2026-05-04 18:13 32.94897 -88.13501 36058 ft 406 kts 257°
2026-05-04 18:14 32.92473 -88.23152 36081 ft 407 kts 256°
2026-05-04 18:14 32.90855 -88.29575 36094 ft 406 kts 256°
2026-05-04 18:15 32.87623 -88.42351 36091 ft 407 kts 257°
2026-05-04 18:16 32.85994 -88.48771 36094 ft 406 kts 257°
2026-05-04 18:16 32.84364 -88.55188 36091 ft 406 kts 256°
2026-05-04 18:17 32.81912 -88.64796 36090 ft 406 kts 257°
2026-05-04 18:18 32.79476 -88.74314 36102 ft 406 kts 256°